Wetterdaten: Donnerstag, 13.06.2013
Datum Zeit Temperatur Luftfeuchte Luftdruck Regen Wind Richtung Richtung Taupunkt Windchill Windben
13.06.2013 00:02 9,7 C 77 % 1023,8 hPa 0,0 l/m 0,5 km/h (0 Bft) S-SW 202 5,9 C 10,0 C 0,0 km/h (0 Bft)
13.06.2013 00:05 9,7 C 77 % 1023,8 hPa 0,0 l/m 0,5 km/h (0 Bft) S-SW 202 5,9 C 10,0 C 0,0 km/h (0 Bft)
13.06.2013 00:10 9,8 C 77 % 1023,8 hPa 0,0 l/m 0,3 km/h (0 Bft) S 180 6,0 C 10,0 C 0,0 km/h (0 Bft)
13.06.2013 00:15 9,8 C 77 % 1023,8 hPa 0,0 l/m 0,2 km/h (0 Bft) O 90 6,0 C 10,0 C 0,0 km/h (0 Bft)
13.06.2013 00:20 9,7 C 77 % 1023,8 hPa 0,0 l/m 0,2 km/h (0 Bft) S-SW 202 5,9 C 10,0 C 4,2 km/h (1 Bft)
13.06.2013 00:25 9,7 C 78 % 1023,8 hPa 0,0 l/m 0,3 km/h (0 Bft) O-SO 112 6,1 C 10,0 C 1,6 km/h (1 Bft)
13.06.2013 00:30 9,7 C 78 % 1023,8 hPa 0,0 l/m 0,2 km/h (0 Bft) S 180 6,1 C 10,0 C 0,0 km/h (0 Bft)
13.06.2013 00:35 9,6 C 78 % 1023,8 hPa 0,0 l/m 0,0 km/h (0 Bft) S-SW 202 6,0 C 9,9 C 0,0 km/h (0 Bft)
13.06.2013 00:40 9,8 C 78 % 1023,8 hPa 0,0 l/m 0,0 km/h (0 Bft) S-SW 202 6,1 C 9,8 C 0,0 km/h (0 Bft)
13.06.2013 00:45 9,9 C 78 % 1023,6 hPa 0,0 l/m 0,2 km/h (0 Bft) O 90 6,2 C 9,8 C 2,1 km/h (1 Bft)
13.06.2013 00:50 10,0 C 78 % 1023,6 hPa 0,0 l/m 0,0 km/h (0 Bft) O 90 6,3 C 9,8 C 0,0 km/h (0 Bft)
13.06.2013 00:55 9,7 C 77 % 1023,6 hPa 0,0 l/m 0,0 km/h (0 Bft) O-SO 112 5,9 C 9,8 C 0,0 km/h (0 Bft)
13.06.2013 01:00 9,6 C 77 % 1023,6 hPa 0,0 l/m 0,2 km/h (0 Bft) S-SW 202 5,8 C 9,8 C 0,0 km/h (0 Bft)
13.06.2013 01:05 9,4 C 77 % 1023,4 hPa 0,0 l/m 0,2 km/h (0 Bft) W-SW 247 5,6 C 9,6 C 0,0 km/h (0 Bft)
13.06.2013 01:10 9,4 C 78 % 1023,4 hPa 0,0 l/m 0,3 km/h (0 Bft) S-SW 202 5,8 C 9,5 C 1,6 km/h (1 Bft)
13.06.2013 01:15 9,4 C 78 % 1023,4 hPa 0,0 l/m 0,5 km/h (0 Bft) O 90 5,8 C 9,7 C 0,0 km/h (0 Bft)
13.06.2013 01:20 9,4 C 78 % 1023,4 hPa 0,0 l/m 0,3 km/h (0 Bft) S 180 5,8 C 9,6 C 0,0 km/h (0 Bft)
13.06.2013 01:25 9,4 C 78 % 1023,6 hPa 0,0 l/m 0,0 km/h (0 Bft) S 180 5,8 C 9,5 C 0,0 km/h (0 Bft)
13.06.2013 01:30 9,4 C 78 % 1023,6 hPa 0,0 l/m 0,2 km/h (0 Bft) S-SW 202 5,8 C 9,6 C 0,0 km/h (0 Bft)
13.06.2013 01:35 9,3 C 78 % 1023,6 hPa 0,0 l/m 0,2 km/h (0 Bft) S 180 5,7 C 9,5 C 0,0 km/h (0 Bft)
13.06.2013 01:40 9,5 C 79 % 1023,6 hPa 0,0 l/m 0,0 km/h (0 Bft) SO 135 6,0 C 9,2 C 0,0 km/h (0 Bft)
13.06.2013 01:45 9,4 C 79 % 1023,5 hPa 0,0 l/m 0,0 km/h (0 Bft) S-SW 202 5,9 C 9,2 C 0,0 km/h (0 Bft)
13.06.2013 01:50 9,1 C 79 % 1023,5 hPa 0,0 l/m 0,0 km/h (0 Bft) S-SW 202 5,7 C 8,9 C 0,0 km/h (0 Bft)
13.06.2013 01:55 9,0 C 79 % 1023,5 hPa 0,0 l/m 0,0 km/h (0 Bft) S 180 5,6 C 8,8 C 0,0 km/h (0 Bft)
13.06.2013 02:00 8,9 C 79 % 1023,5 hPa 0,0 l/m 0,0 km/h (0 Bft) SW 225 5,5 C 8,7 C 0,0 km/h (0 Bft)
13.06.2013 02:05 8,8 C 79 % 1023,2 hPa 0,0 l/m 0,0 km/h (0 Bft) S-SO 157 5,4 C 8,6 C 0,0 km/h (0 Bft)
13.06.2013 02:10 8,6 C 79 % 1023,2 hPa 0,0 l/m 0,0 km/h (0 Bft) S-SW 202 5,2 C 8,5 C 0,0 km/h (0 Bft)
13.06.2013 02:15 8,5 C 79 % 1023,2 hPa 0,0 l/m 0,0 km/h (0 Bft) S-SW 202 5,1 C 8,3 C 0,0 km/h (0 Bft)
13.06.2013 02:20 8,3 C 80 % 1023,2 hPa 0,0 l/m 0,0 km/h (0 Bft) SO 135 5,1 C 8,2 C 0,0 km/h (0 Bft)
13.06.2013 02:25 8,2 C 80 % 1023,1 hPa 0,0 l/m 0,0 km/h (0 Bft) SW 225 5,0 C 8,2 C 0,0 km/h (0 Bft)
13.06.2013 02:30 8,2 C 80 % 1023,1 hPa 0,0 l/m 0,0 km/h (0 Bft) S-SO 157 5,0 C 8,3 C 0,0 km/h (0 Bft)
13.06.2013 02:35 8,4 C 80 % 1023,1 hPa 0,0 l/m 0,2 km/h (0 Bft) W-SW 247 5,2 C 8,3 C 2,3 km/h (1 Bft)
13.06.2013 02:40 8,7 C 81 % 1023,1 hPa 0,0 l/m 0,3 km/h (0 Bft) S-SW 202 5,6 C 8,4 C 0,0 km/h (0 Bft)
13.06.2013 02:45 8,5 C 81 % 1022,9 hPa 0,0 l/m 0,3 km/h (0 Bft) S 180 5,4 C 8,5 C 0,0 km/h (0 Bft)
13.06.2013 02:50 8,6 C 81 % 1022,9 hPa 0,0 l/m 0,0 km/h (0 Bft) S-SW 202 5,5 C 8,4 C 0,0 km/h (0 Bft)
13.06.2013 02:55 8,4 C 81 % 1022,9 hPa 0,0 l/m 0,0 km/h (0 Bft) S-SO 157 5,3 C 8,3 C 0,0 km/h (0 Bft)
13.06.2013 03:00 8,3 C 81 % 1022,9 hPa 0,0 l/m 0,0 km/h (0 Bft) SW 225 5,2 C 8,0 C 0,0 km/h (0 Bft)
13.06.2013 03:05 8,3 C 81 % 1022,9 hPa 0,0 l/m 0,0 km/h (0 Bft) SO 135 5,2 C 8,0 C 0,0 km/h (0 Bft)
13.06.2013 03:10 8,2 C 81 % 1022,9 hPa 0,0 l/m 0,0 km/h (0 Bft) SO 135 5,1 C 7,9 C 0,0 km/h (0 Bft)
13.06.2013 03:15 8,2 C 81 % 1022,9 hPa 0,0 l/m 0,0 km/h (0 Bft) S-SW 202 5,1 C 7,9 C 0,0 km/h (0 Bft)
13.06.2013 03:20 8,1 C 82 % 1022,9 hPa 0,0 l/m 0,0 km/h (0 Bft) W-SW 247 5,2 C 7,7 C 0,0 km/h (0 Bft)
13.06.2013 03:25 8,2 C 82 % 1023,1 hPa 0,0 l/m 0,0 km/h (0 Bft) SO 135 5,3 C 7,9 C 0,0 km/h (0 Bft)
13.06.2013 03:30 8,4 C 82 % 1023,1 hPa 0,0 l/m 0,2 km/h (0 Bft) S-SO 157 5,5 C 8,1 C 0,0 km/h (0 Bft)
13.06.2013 03:35 8,5 C 82 % 1023,1 hPa 0,0 l/m 0,2 km/h (0 Bft) S-SO 157 5,6 C 8,3 C 0,0 km/h (0 Bft)
13.06.2013 03:40 8,6 C 82 % 1023,1 hPa 0,0 l/m 0,0 km/h (0 Bft) S 180 5,7 C 8,4 C 0,0 km/h (0 Bft)
13.06.2013 03:45 8,6 C 82 % 1023,0 hPa 0,0 l/m 0,2 km/h (0 Bft) W-SW 247 5,7 C 8,6 C 1,9 km/h (1 Bft)
13.06.2013 03:50 8,5 C 82 % 1023,0 hPa 0,0 l/m 0,2 km/h (0 Bft) S-SO 157 5,6 C 8,6 C 0,0 km/h (0 Bft)
13.06.2013 03:55 8,4 C 82 % 1023,0 hPa 0,0 l/m 0,2 km/h (0 Bft) O-SO 112 5,5 C 8,5 C 0,0 km/h (0 Bft)
13.06.2013 04:00 8,3 C 82 % 1023,0 hPa 0,0 l/m 0,0 km/h (0 Bft) S 180 5,4 C 8,3 C 0,0 km/h (0 Bft)
13.06.2013 04:05 8,2 C 82 % 1022,9 hPa 0,0 l/m 0,0 km/h (0 Bft) O 90 5,3 C 8,2 C 0,0 km/h (0 Bft)
13.06.2013 04:10 8,2 C 82 % 1022,9 hPa 0,0 l/m 0,0 km/h (0 Bft) NO 45 5,3 C 8,1 C 0,0 km/h (0 Bft)
13.06.2013 04:15 8,3 C 82 % 1022,9 hPa 0,0 l/m 0,2 km/h (0 Bft) NO 45 5,4 C 8,1 C 1,9 km/h (1 Bft)
13.06.2013 04:20 8,2 C 82 % 1022,9 hPa 0,0 l/m 0,2 km/h (0 Bft) S-SW 202 5,3 C 8,3 C 0,0 km/h (0 Bft)
13.06.2013 04:25 8,5 C 82 % 1022,9 hPa 0,0 l/m 0,3 km/h (0 Bft) O 90 5,6 C 8,4 C 0,0 km/h (0 Bft)
13.06.2013 04:30 8,6 C 82 % 1022,9 hPa 0,0 l/m 0,2 km/h (0 Bft) S 180 5,7 C 8,6 C 0,0 km/h (0 Bft)
13.06.2013 04:35 8,6 C 82 % 1022,9 hPa 0,0 l/m 0,0 km/h (0 Bft) S 180 5,7 C 8,6 C 0,0 km/h (0 Bft)
13.06.2013 04:40 8,6 C 82 % 1022,9 hPa 0,0 l/m 0,3 km/h (0 Bft) SO 135 5,7 C 8,8 C 0,0 km/h (0 Bft)
13.06.2013 04:45 8,6 C 82 % 1023,1 hPa 0,0 l/m 0,3 km/h (0 Bft) S-SW 202 5,7 C 8,8 C 0,0 km/h (0 Bft)
13.06.2013 04:50 8,5 C 82 % 1023,1 hPa 0,0 l/m 0,0 km/h (0 Bft) SO 135 5,6 C 8,8 C 1,8 km/h (1 Bft)
13.06.2013 04:55 8,4 C 82 % 1023,1 hPa 0,0 l/m 0,0 km/h (0 Bft) O-SO 112 5,5 C 8,6 C 0,0 km/h (0 Bft)
13.06.2013 05:00 8,5 C 82 % 1023,1 hPa 0,0 l/m 0,0 km/h (0 Bft) O-SO 112 5,6 C 8,5 C 0,0 km/h (0 Bft)
13.06.2013 05:05 8,4 C 82 % 1022,8 hPa 0,0 l/m 0,0 km/h (0 Bft) S 180 5,5 C 8,5 C 0,0 km/h (0 Bft)
13.06.2013 05:10 8,4 C 82 % 1022,8 hPa 0,0 l/m 0,3 km/h (0 Bft) S-SW 202 5,5 C 8,6 C 3,2 km/h (1 Bft)
13.06.2013 05:15 8,7 C 82 % 1022,8 hPa 0,0 l/m 0,6 km/h (0 Bft) S 180 5,8 C 8,8 C 2,6 km/h (1 Bft)
13.06.2013 05:20 8,9 C 82 % 1022,8 hPa 0,0 l/m 0,8 km/h (0 Bft) S-SW 202 6,0 C 9,2 C 1,6 km/h (1 Bft)
13.06.2013 05:25 9,2 C 82 % 1022,8 hPa 0,0 l/m 1,3 km/h (1 Bft) S 180 6,3 C 9,5 C 3,5 km/h (1 Bft)
13.06.2013 05:30 9,2 C 82 % 1022,8 hPa 0,0 l/m 1,8 km/h (1 Bft) S 180 6,3 C 9,9 C 4,3 km/h (1 Bft)
13.06.2013 05:35 9,2 C 81 % 1022,8 hPa 0,0 l/m 1,1 km/h (1 Bft) S 180 6,1 C 10,0 C 0,0 km/h (0 Bft)
13.06.2013 05:40 9,3 C 81 % 1022,8 hPa 0,0 l/m 0,3 km/h (0 Bft) S-SW 202 6,2 C 10,1 C 1,9 km/h (1 Bft)
13.06.2013 05:45 9,5 C 81 % 1022,8 hPa 0,0 l/m 0,3 km/h (0 Bft) S-SW 202 6,4 C 10,4 C 2,3 km/h (1 Bft)
13.06.2013 05:50 9,8 C 81 % 1022,8 hPa 0,0 l/m 0,8 km/h (0 Bft) S-SW 202 6,7 C 10,9 C 0,0 km/h (0 Bft)
13.06.2013 05:55 10,1 C 80 % 1022,8 hPa 0,0 l/m 1,0 km/h (0 Bft) O-SO 112 6,8 C 11,1 C 0,0 km/h (0 Bft)
13.06.2013 06:00 10,4 C 80 % 1022,8 hPa 0,0 l/m 0,5 km/h (0 Bft) SO 135 7,1 C 11,6 C 0,0 km/h (0 Bft)
13.06.2013 06:05 11,4 C 79 % 1022,7 hPa 0,0 l/m 0,3 km/h (0 Bft) W-SW 247 7,9 C 12,2 C 0,0 km/h (0 Bft)
13.06.2013 06:10 12,9 C 78 % 1022,7 hPa 0,0 l/m 0,2 km/h (0 Bft) W-SW 247 9,2 C 13,0 C 0,0 km/h (0 Bft)
13.06.2013 06:15 13,9 C 75 % 1022,7 hPa 0,0 l/m 0,2 km/h (0 Bft) W-SW 247 9,5 C 13,7 C 0,0 km/h (0 Bft)
13.06.2013 06:20 14,2 C 72 % 1022,7 hPa 0,0 l/m 0,0 km/h (0 Bft) S-SO 157 9,2 C 14,6 C 0,0 km/h (0 Bft)
13.06.2013 06:25 14,3 C 71 % 1022,6 hPa 0,0 l/m 0,2 km/h (0 Bft) S-SO 157 9,1 C 14,9 C 0,0 km/h (0 Bft)
13.06.2013 06:30 13,7 C 70 % 1022,6 hPa 0,0 l/m 0,3 km/h (0 Bft) S 180 8,3 C 14,8 C 0,0 km/h (0 Bft)
13.06.2013 06:35 13,8 C 70 % 1022,6 hPa 0,0 l/m 0,2 km/h (0 Bft) S-SW 202 8,4 C 14,5 C 1,6 km/h (1 Bft)
13.06.2013 06:40 14,4 C 69 % 1022,6 hPa 0,0 l/m 0,5 km/h (0 Bft) SW 225 8,8 C 14,7 C 2,3 km/h (1 Bft)
13.06.2013 06:45 15,2 C 69 % 1022,6 hPa 0,0 l/m 1,1 km/h (1 Bft) W-SW 247 9,6 C 15,0 C 2,3 km/h (1 Bft)
13.06.2013 06:50 15,8 C 64 % 1022,6 hPa 0,0 l/m 1,1 km/h (1 Bft) W-SW 247 9,0 C 15,6 C 0,0 km/h (0 Bft)
13.06.2013 06:55 17,2 C 64 % 1022,6 hPa 0,0 l/m 1,1 km/h (1 Bft) W-SW 247 10,3 C 16,1 C 3,1 km/h (1 Bft)
13.06.2013 07:00 17,8 C 58 % 1022,6 hPa 0,0 l/m 1,1 km/h (1 Bft) SO 135 9,4 C 17,2 C 1,9 km/h (1 Bft)
13.06.2013 07:05 17,7 C 57 % 1022,8 hPa 0,0 l/m 0,6 km/h (0 Bft) SO 135 9,1 C 17,9 C 0,0 km/h (0 Bft)
13.06.2013 07:10 18,8 C 58 % 1022,8 hPa 0,0 l/m 0,5 km/h (0 Bft) NO 45 10,4 C 18,9 C 2,3 km/h (1 Bft)
13.06.2013 07:15 19,7 C 58 % 1022,8 hPa 0,0 l/m 0,5 km/h (0 Bft) NO 45 11,2 C 19,5 C 0,0 km/h (0 Bft)
13.06.2013 07:20 19,8 C 55 % 1022,8 hPa 0,0 l/m 0,3 km/h (0 Bft) NO 45 10,5 C 20,4 C 0,0 km/h (0 Bft)
13.06.2013 07:25 19,5 C 55 % 1022,8 hPa 0,0 l/m 0,0 km/h (0 Bft) NO 45 10,2 C 20,7 C 0,0 km/h (0 Bft)
13.06.2013 07:30 20,6 C 53 % 1022,8 hPa 0,0 l/m 0,0 km/h (0 Bft) NO 45 10,7 C 21,4 C 0,0 km/h (0 Bft)
13.06.2013 07:35 21,2 C 54 % 1022,8 hPa 0,0 l/m 0,0 km/h (0 Bft) NO 45 11,5 C 22,1 C 1,8 km/h (1 Bft)
13.06.2013 07:40 22,0 C 49 % 1022,8 hPa 0,0 l/m 0,2 km/h (0 Bft) NO 45 10,8 C 22,8 C 0,0 km/h (0 Bft)
13.06.2013 07:45 22,3 C 51 % 1023,1 hPa 0,0 l/m 0,2 km/h (0 Bft) NO 45 11,7 C 23,5 C 0,0 km/h (0 Bft)
13.06.2013 07:50 22,0 C 47 % 1023,1 hPa 0,0 l/m 0,3 km/h (0 Bft) NO 45 10,2 C 23,9 C 2,3 km/h (1 Bft)
13.06.2013 07:55 22,4 C 49 % 1023,1 hPa 0,0 l/m 0,5 km/h (0 Bft) NO 45 11,2 C 23,8 C 0,0 km/h (0 Bft)
13.06.2013 08:00 23,3 C 46 % 1023,1 hPa 0,0 l/m 0,6 km/h (0 Bft) NO 45 11,0 C 24,4 C 0,0 km/h (0 Bft)
13.06.2013 08:05 23,6 C 48 % 1023,1 hPa 0,0 l/m 0,5 km/h (0 Bft) NO 45 11,9 C 24,5 C 2,3 km/h (1 Bft)
13.06.2013 08:10 24,4 C 48 % 1023,1 hPa 0,0 l/m 0,5 km/h (0 Bft) NO 45 12,7 C 24,9 C 0,0 km/h (0 Bft)
13.06.2013 08:15 24,1 C 46 % 1023,1 hPa 0,0 l/m 0,3 km/h (0 Bft) N-NO 22 11,7 C 25,4 C 0,0 km/h (0 Bft)
13.06.2013 08:20 24,2 C 44 % 1023,1 hPa 0,0 l/m 0,2 km/h (0 Bft) O-NO 67 11,2 C 25,9 C 2,4 km/h (1 Bft)
13.06.2013 08:25 24,2 C 47 % 1023,2 hPa 0,0 l/m 0,5 km/h (0 Bft) O 90 12,2 C 26,1 C 1,6 km/h (1 Bft)
13.06.2013 08:30 24,6 C 45 % 1023,2 hPa 0,0 l/m 0,5 km/h (0 Bft) O 90 11,9 C 26,5 C 0,0 km/h (0 Bft)
13.06.2013 08:35 24,8 C 46 % 1023,2 hPa 0,0 l/m 0,3 km/h (0 Bft) S 180 12,4 C 26,9 C 1,9 km/h (1 Bft)
13.06.2013 08:40 24,1 C 45 % 1023,2 hPa 0,0 l/m 0,2 km/h (0 Bft) W-SW 247 11,4 C 26,9 C 0,0 km/h (0 Bft)
13.06.2013 08:45 24,7 C 47 % 1023,1 hPa 0,0 l/m 0,2 km/h (0 Bft) W-SW 247 12,6 C 27,1 C 0,0 km/h (0 Bft)
13.06.2013 08:50 25,2 C 45 % 1023,1 hPa 0,0 l/m 0,0 km/h (0 Bft) W-SW 247 12,4 C 27,9 C 0,0 km/h (0 Bft)
13.06.2013 08:55 25,0 C 44 % 1023,1 hPa 0,0 l/m 0,0 km/h (0 Bft) SW 225 11,9 C 28,4 C 0,0 km/h (0 Bft)
13.06.2013 09:00 25,3 C 43 % 1023,1 hPa 0,0 l/m 0,0 km/h (0 Bft) SW 225 11,8 C 28,9 C 0,0 km/h (0 Bft)
13.06.2013 09:05 25,7 C 42 % 1023,2 hPa 0,0 l/m 0,2 km/h (0 Bft) SW 225 11,8 C 29,0 C 0,0 km/h (0 Bft)
13.06.2013 09:10 26,2 C 40 % 1023,2 hPa 0,0 l/m 0,2 km/h (0 Bft) S-SW 202 11,5 C 29,2 C 0,0 km/h (0 Bft)
13.06.2013 09:15 26,2 C 41 % 1023,2 hPa 0,0 l/m 0,0 km/h (0 Bft) S 180 11,9 C 29,5 C 0,0 km/h (0 Bft)
13.06.2013 09:20 25,8 C 39 % 1023,2 hPa 0,0 l/m 0,2 km/h (0 Bft) NO 45 10,8 C 29,3 C 0,0 km/h (0 Bft)
13.06.2013 09:25 25,2 C 39 % 1023,8 hPa 0,0 l/m 0,6 km/h (0 Bft) N-NO 22 10,2 C 28,9 C 0,0 km/h (0 Bft)
13.06.2013 09:30 25,1 C 37 % 1023,8 hPa 0,0 l/m 1,1 km/h (1 Bft) O 90 9,4 C 28,3 C 1,9 km/h (1 Bft)
13.06.2013 09:35 25,4 C 39 % 1023,8 hPa 0,0 l/m 1,0 km/h (0 Bft) N-NO 22 10,4 C 28,2 C 3,4 km/h (1 Bft)
13.06.2013 09:40 25,0 C 37 % 1023,8 hPa 0,0 l/m 2,3 km/h (1 Bft) N 360 9,3 C 26,9 C 4,8 km/h (1 Bft)
13.06.2013 09:45 25,6 C 38 % 1023,8 hPa 0,0 l/m 2,3 km/h (1 Bft) N-NO 22 10,2 C 26,3 C 0,0 km/h (0 Bft)
13.06.2013 09:50 24,6 C 35 % 1023,8 hPa 0,0 l/m 2,1 km/h (1 Bft) NO 45 8,1 C 26,5 C 7,1 km/h (2 Bft)
13.06.2013 09:55 24,8 C 34 % 1023,8 hPa 0,0 l/m 2,3 km/h (1 Bft) N-NO 22 7,9 C 26,5 C 3,4 km/h (1 Bft)
13.06.2013 10:00 25,4 C 37 % 1023,8 hPa 0,0 l/m 2,1 km/h (1 Bft) N-NW 337 9,6 C 26,9 C 1,6 km/h (1 Bft)
13.06.2013 10:05 25,2 C 37 % 1023,8 hPa 0,0 l/m 1,8 km/h (1 Bft) W 270 9,5 C 27,3 C 3,4 km/h (1 Bft)
13.06.2013 10:10 24,3 C 36 % 1023,8 hPa 0,0 l/m 1,8 km/h (1 Bft) W-NW 292 8,3 C 27,2 C 2,9 km/h (1 Bft)
13.06.2013 10:15 24,5 C 36 % 1023,8 hPa 0,0 l/m 1,4 km/h (1 Bft) N 360 8,4 C 27,2 C 2,6 km/h (1 Bft)
13.06.2013 10:20 25,0 C 35 % 1023,8 hPa 0,0 l/m 1,4 km/h (1 Bft) N-NW 337 8,5 C 27,2 C 4,0 km/h (1 Bft)
13.06.2013 10:25 24,6 C 36 % 1023,8 hPa 0,0 l/m 2,1 km/h (1 Bft) N-NW 337 8,5 C 27,0 C 2,9 km/h (1 Bft)
13.06.2013 10:30 25,4 C 36 % 1023,8 hPa 0,0 l/m 1,9 km/h (1 Bft) N-NW 337 9,2 C 27,3 C 3,4 km/h (1 Bft)
13.06.2013 10:35 25,1 C 34 % 1023,8 hPa 0,0 l/m 1,8 km/h (1 Bft) N-NO 22 8,1 C 27,4 C 4,7 km/h (1 Bft)
13.06.2013 10:40 24,7 C 34 % 1023,8 hPa 0,0 l/m 2,4 km/h (1 Bft) N 360 7,8 C 27,5 C 3,9 km/h (1 Bft)
13.06.2013 10:45 24,9 C 34 % 1023,6 hPa 0,0 l/m 1,6 km/h (1 Bft) N 360 7,9 C 27,4 C 2,9 km/h (1 Bft)
13.06.2013 10:50 24,6 C 35 % 1023,6 hPa 0,0 l/m 2,1 km/h (1 Bft) N 360 8,1 C 27,2 C 3,5 km/h (1 Bft)
13.06.2013 10:55 25,0 C 35 % 1023,6 hPa 0,0 l/m 2,7 km/h (1 Bft) W-SW 247 8,5 C 26,9 C 2,3 km/h (1 Bft)
13.06.2013 11:00 25,0 C 35 % 1023,6 hPa 0,0 l/m 2,6 km/h (1 Bft) N-NO 22 8,5 C 26,5 C 5,1 km/h (1 Bft)
13.06.2013 11:05 25,6 C 35 % 1023,4 hPa 0,0 l/m 2,9 km/h (1 Bft) S-SO 157 9,0 C 26,7 C 3,4 km/h (1 Bft)
13.06.2013 11:10 25,8 C 34 % 1023,4 hPa 0,0 l/m 3,2 km/h (1 Bft) W 270 8,7 C 27,2 C 2,9 km/h (1 Bft)
13.06.2013 11:15 25,8 C 33 % 1023,4 hPa 0,0 l/m 3,1 km/h (1 Bft) N 360 8,3 C 27,6 C 3,2 km/h (1 Bft)
13.06.2013 11:20 26,4 C 34 % 1023,4 hPa 0,0 l/m 3,7 km/h (1 Bft) W 270 9,3 C 27,5 C 7,9 km/h (2 Bft)
13.06.2013 11:25 26,6 C 33 % 1023,4 hPa 0,0 l/m 3,1 km/h (1 Bft) S 180 9,0 C 27,7 C 2,4 km/h (1 Bft)
13.06.2013 11:30 26,8 C 34 % 1023,4 hPa 0,0 l/m 1,9 km/h (1 Bft) W-NW 292 9,6 C 28,4 C 5,8 km/h (2 Bft)
13.06.2013 11:35 26,6 C 34 % 1023,4 hPa 0,0 l/m 3,2 km/h (1 Bft) W-SW 247 9,4 C 27,9 C 6,8 km/h (2 Bft)
13.06.2013 11:40 26,9 C 34 % 1023,4 hPa 0,0 l/m 3,5 km/h (1 Bft) S-SO 157 9,7 C 27,7 C 2,7 km/h (1 Bft)
13.06.2013 11:45 27,3 C 34 % 1023,4 hPa 0,0 l/m 2,4 km/h (1 Bft) W-SW 247 10,0 C 28,2 C 2,4 km/h (1 Bft)
13.06.2013 11:50 26,5 C 33 % 1023,4 hPa 0,0 l/m 3,2 km/h (1 Bft) N 360 8,9 C 27,7 C 8,0 km/h (2 Bft)
13.06.2013 11:55 26,7 C 34 % 1023,4 hPa 0,0 l/m 2,9 km/h (1 Bft) SO 135 9,5 C 28,0 C 0,0 km/h (0 Bft)
13.06.2013 12:00 26,3 C 34 % 1023,4 hPa 0,0 l/m 1,8 km/h (1 Bft) N 360 9,2 C 28,7 C 0,0 km/h (0 Bft)
13.06.2013 12:05 26,7 C 36 % 1023,1 hPa 0,0 l/m 1,3 km/h (1 Bft) S 180 10,4 C 29,2 C 3,7 km/h (1 Bft)
13.06.2013 12:10 27,4 C 33 % 1023,1 hPa 0,0 l/m 1,8 km/h (1 Bft) N-NW 337 9,7 C 29,2 C 4,7 km/h (1 Bft)
13.06.2013 12:15 26,3 C 34 % 1023,1 hPa 0,0 l/m 2,9 km/h (1 Bft) W-NW 292 9,2 C 28,8 C 2,4 km/h (1 Bft)
13.06.2013 12:20 26,4 C 33 % 1023,1 hPa 0,0 l/m 3,9 km/h (1 Bft) W 270 8,8 C 28,2 C 8,2 km/h (2 Bft)
13.06.2013 12:25 27,3 C 35 % 1022,9 hPa 0,0 l/m 2,9 km/h (1 Bft) S-SW 202 10,5 C 28,1 C 2,7 km/h (1 Bft)
13.06.2013 12:30 26,1 C 35 % 1022,9 hPa 0,0 l/m 3,4 km/h (1 Bft) N 360 9,4 C 28,0 C 9,3 km/h (2 Bft)
13.06.2013 12:35 25,7 C 34 % 1022,9 hPa 0,0 l/m 4,7 km/h (1 Bft) N-NW 337 8,6 C 27,8 C 5,0 km/h (1 Bft)
13.06.2013 12:40 26,0 C 35 % 1022,9 hPa 0,0 l/m 4,8 km/h (1 Bft) N 360 9,3 C 27,4 C 3,9 km/h (1 Bft)
13.06.2013 12:45 26,5 C 35 % 1022,9 hPa 0,0 l/m 4,5 km/h (1 Bft) SW 225 9,8 C 27,4 C 5,3 km/h (1 Bft)
13.06.2013 12:50 26,0 C 35 % 1022,9 hPa 0,0 l/m 3,1 km/h (1 Bft) O 90 9,3 C 28,0 C 3,1 km/h (1 Bft)
13.06.2013 12:55 26,5 C 36 % 1022,9 hPa 0,0 l/m 2,3 km/h (1 Bft) S-SW 202 10,2 C 28,4 C 3,1 km/h (1 Bft)
13.06.2013 13:00 26,4 C 35 % 1022,9 hPa 0,0 l/m 2,9 km/h (1 Bft) O-NO 67 9,7 C 28,5 C 2,3 km/h (1 Bft)
13.06.2013 13:05 26,7 C 39 % 1022,8 hPa 0,0 l/m 3,1 km/h (1 Bft) S-SW 202 11,6 C 28,6 C 3,5 km/h (1 Bft)
13.06.2013 13:10 27,0 C 37 % 1022,8 hPa 0,0 l/m 3,7 km/h (1 Bft) W 270 11,1 C 28,5 C 5,1 km/h (1 Bft)
13.06.2013 13:15 26,7 C 37 % 1022,8 hPa 0,0 l/m 4,2 km/h (1 Bft) W-NW 292 10,8 C 28,3 C 4,2 km/h (1 Bft)
13.06.2013 13:20 26,8 C 38 % 1022,8 hPa 0,0 l/m 4,0 km/h (1 Bft) W-NW 292 11,3 C 28,2 C 8,7 km/h (2 Bft)
13.06.2013 13:25 26,6 C 35 % 1022,4 hPa 0,0 l/m 4,3 km/h (1 Bft) W-NW 292 9,9 C 28,0 C 5,1 km/h (1 Bft)
13.06.2013 13:30 26,3 C 35 % 1022,4 hPa 0,0 l/m 3,9 km/h (1 Bft) SO 135 9,6 C 27,9 C 3,7 km/h (1 Bft)
13.06.2013 13:35 26,5 C 36 % 1022,4 hPa 0,0 l/m 3,5 km/h (1 Bft) S-SO 157 10,2 C 28,2 C 2,7 km/h (1 Bft)
13.06.2013 13:40 26,5 C 37 % 1022,4 hPa 0,0 l/m 3,4 km/h (1 Bft) W-NW 292 10,6 C 28,7 C 5,5 km/h (1 Bft)
13.06.2013 13:45 26,0 C 36 % 1022,2 hPa 0,0 l/m 3,7 km/h (1 Bft) W-NW 292 9,8 C 28,4 C 5,1 km/h (1 Bft)
13.06.2013 13:50 27,4 C 36 % 1022,2 hPa 0,0 l/m 2,9 km/h (1 Bft) W-SW 247 11,0 C 28,8 C 3,2 km/h (1 Bft)
13.06.2013 13:55 27,3 C 34 % 1022,2 hPa 0,0 l/m 2,3 km/h (1 Bft) W-NW 292 10,0 C 29,0 C 0,0 km/h (0 Bft)
13.06.2013 14:00 27,0 C 36 % 1022,2 hPa 0,0 l/m 3,1 km/h (1 Bft) S-SO 157 10,6 C 29,3 C 6,1 km/h (2 Bft)
13.06.2013 14:05 27,3 C 34 % 1022,0 hPa 0,0 l/m 2,7 km/h (1 Bft) W 270 10,0 C 29,1 C 2,3 km/h (1 Bft)
13.06.2013 14:10 27,4 C 34 % 1022,0 hPa 0,0 l/m 1,9 km/h (1 Bft) N 360 10,1 C 30,1 C 4,3 km/h (1 Bft)
13.06.2013 14:15 27,5 C 35 % 1022,0 hPa 0,0 l/m 1,4 km/h (1 Bft) W-NW 292 10,7 C 30,4 C 2,9 km/h (1 Bft)
13.06.2013 14:20 27,7 C 36 % 1022,0 hPa 0,0 l/m 2,4 km/h (1 Bft) W 270 11,3 C 30,3 C 2,9 km/h (1 Bft)
13.06.2013 14:25 27,6 C 35 % 1021,7 hPa 0,0 l/m 2,7 km/h (1 Bft) N-NO 22 10,7 C 30,1 C 3,2 km/h (1 Bft)
13.06.2013 14:30 26,9 C 36 % 1021,7 hPa 0,0 l/m 3,4 km/h (1 Bft) O-NO 67 10,6 C 29,7 C 6,8 km/h (2 Bft)
13.06.2013 14:35 27,5 C 36 % 1021,7 hPa 0,0 l/m 2,9 km/h (1 Bft) N-NO 22 11,1 C 29,9 C 3,2 km/h (1 Bft)
13.06.2013 14:40 27,4 C 34 % 1021,7 hPa 0,0 l/m 2,6 km/h (1 Bft) W-NW 292 10,1 C 30,3 C 6,6 km/h (2 Bft)
13.06.2013 14:45 27,3 C 34 % 1021,7 hPa 0,0 l/m 3,5 km/h (1 Bft) W-NW 292 10,0 C 29,7 C 4,0 km/h (1 Bft)
13.06.2013 14:50 27,4 C 36 % 1021,7 hPa 0,0 l/m 5,5 km/h (1 Bft) W-NW 292 11,0 C 29,0 C 13,4 km/h (3 Bft)
13.06.2013 14:55 27,2 C 35 % 1021,7 hPa 0,0 l/m 5,0 km/h (1 Bft) N-NO 22 10,4 C 29,3 C 5,6 km/h (1 Bft)
13.06.2013 15:00 27,5 C 35 % 1021,7 hPa 0,0 l/m 3,9 km/h (1 Bft) NO 45 10,7 C 29,4 C 1,8 km/h (1 Bft)
13.06.2013 15:05 27,6 C 35 % 1021,6 hPa 0,0 l/m 3,7 km/h (1 Bft) O-NO 67 10,7 C 29,8 C 2,4 km/h (1 Bft)
13.06.2013 15:10 27,3 C 34 % 1021,6 hPa 0,0 l/m 3,4 km/h (1 Bft) N 360 10,0 C 29,8 C 3,1 km/h (1 Bft)
13.06.2013 15:15 27,3 C 35 % 1021,6 hPa 0,0 l/m 3,4 km/h (1 Bft) N-NW 337 10,5 C 29,9 C 2,9 km/h (1 Bft)
13.06.2013 15:20 27,3 C 35 % 1021,6 hPa 0,0 l/m 3,2 km/h (1 Bft) N-NW 337 10,5 C 30,2 C 2,9 km/h (1 Bft)
13.06.2013 15:25 27,9 C 33 % 1021,3 hPa 0,0 l/m 3,9 km/h (1 Bft) N-NW 337 10,1 C 30,2 C 11,6 km/h (2 Bft)
13.06.2013 15:30 27,7 C 34 % 1021,3 hPa 0,0 l/m 4,2 km/h (1 Bft) W-NW 292 10,4 C 29,9 C 6,8 km/h (2 Bft)
13.06.2013 15:35 27,3 C 35 % 1021,3 hPa 0,0 l/m 3,9 km/h (1 Bft) W-SW 247 10,5 C 29,9 C 0,0 km/h (0 Bft)
13.06.2013 15:40 27,8 C 35 % 1021,3 hPa 0,0 l/m 3,5 km/h (1 Bft) W-NW 292 10,9 C 30,3 C 4,8 km/h (1 Bft)
13.06.2013 15:45 27,9 C 34 % 1021,2 hPa 0,0 l/m 3,5 km/h (1 Bft) NW 315 10,6 C 30,2 C 6,0 km/h (2 Bft)
13.06.2013 15:50 27,8 C 35 % 1021,2 hPa 0,0 l/m 4,5 km/h (1 Bft) W-NW 292 10,9 C 29,8 C 4,5 km/h (1 Bft)
13.06.2013 15:55 27,6 C 34 % 1021,2 hPa 0,0 l/m 4,0 km/h (1 Bft) W-SW 247 10,3 C 30,2 C 5,3 km/h (1 Bft)
13.06.2013 16:00 27,6 C 35 % 1021,2 hPa 0,0 l/m 4,7 km/h (1 Bft) SW 225 10,7 C 29,9 C 8,2 km/h (2 Bft)
13.06.2013 16:05 27,8 C 36 % 1021,1 hPa 0,0 l/m 5,3 km/h (1 Bft) W-SW 247 11,3 C 29,7 C 5,0 km/h (1 Bft)
13.06.2013 16:10 28,0 C 35 % 1021,1 hPa 0,0 l/m 4,5 km/h (1 Bft) W 270 11,1 C 30,2 C 8,2 km/h (2 Bft)
13.06.2013 16:15 27,7 C 36 % 1021,1 hPa 0,0 l/m 4,3 km/h (1 Bft) W 270 11,3 C 30,1 C 3,2 km/h (1 Bft)
13.06.2013 16:20 27,8 C 35 % 1021,1 hPa 0,0 l/m 4,0 km/h (1 Bft) NW 315 10,9 C 30,5 C 4,5 km/h (1 Bft)
13.06.2013 16:25 27,3 C 35 % 1020,9 hPa 0,0 l/m 3,2 km/h (1 Bft) N 360 10,5 C 30,9 C 9,5 km/h (2 Bft)
13.06.2013 16:30 27,0 C 35 % 1020,9 hPa 0,0 l/m 3,1 km/h (1 Bft) N 360 10,2 C 31,2 C 2,1 km/h (1 Bft)
13.06.2013 16:35 27,3 C 36 % 1020,9 hPa 0,0 l/m 3,5 km/h (1 Bft) W 270 10,9 C 31,5 C 7,1 km/h (2 Bft)
13.06.2013 16:40 26,7 C 36 % 1020,9 hPa 0,0 l/m 4,3 km/h (1 Bft) NW 315 10,4 C 31,3 C 11,1 km/h (2 Bft)
13.06.2013 16:45 26,5 C 36 % 1020,7 hPa 0,0 l/m 5,3 km/h (1 Bft) W-NW 292 10,2 C 30,8 C 8,0 km/h (2 Bft)
13.06.2013 16:50 26,1 C 37 % 1020,7 hPa 0,0 l/m 5,0 km/h (1 Bft) N-NO 22 10,3 C 30,7 C 6,6 km/h (2 Bft)
13.06.2013 16:55 25,9 C 38 % 1020,7 hPa 0,0 l/m 4,3 km/h (1 Bft) NO 45 10,5 C 30,8 C 7,2 km/h (2 Bft)
13.06.2013 17:00 25,5 C 39 % 1020,7 hPa 0,0 l/m 3,7 km/h (1 Bft) N-NW 337 10,5 C 31,2 C 4,5 km/h (1 Bft)
13.06.2013 17:05 25,5 C 39 % 1020,4 hPa 0,0 l/m 3,1 km/h (1 Bft) NO 45 10,5 C 31,5 C 7,4 km/h (2 Bft)
13.06.2013 17:10 25,3 C 42 % 1020,4 hPa 0,0 l/m 2,6 km/h (1 Bft) W-NW 292 11,5 C 31,9 C 7,1 km/h (2 Bft)
13.06.2013 17:15 25,2 C 41 % 1020,4 hPa 0,0 l/m 2,4 km/h (1 Bft) W 270 11,0 C 32,0 C 1,9 km/h (1 Bft)
13.06.2013 17:20 25,1 C 41 % 1020,4 hPa 0,0 l/m 3,5 km/h (1 Bft) W-NW 292 10,9 C 31,7 C 4,2 km/h (1 Bft)
13.06.2013 17:25 25,1 C 42 % 1020,3 hPa 0,0 l/m 3,7 km/h (1 Bft) S 180 11,3 C 31,4 C 3,5 km/h (1 Bft)
13.06.2013 17:30 25,2 C 42 % 1020,3 hPa 0,0 l/m 4,0 km/h (1 Bft) W 270 11,4 C 31,4 C 5,3 km/h (1 Bft)
13.06.2013 17:35 25,1 C 42 % 1020,3 hPa 0,0 l/m 4,5 km/h (1 Bft) W-NW 292 11,3 C 31,2 C 5,3 km/h (1 Bft)
13.06.2013 17:40 24,9 C 43 % 1020,3 hPa 0,0 l/m 3,1 km/h (1 Bft) N-NW 337 11,4 C 31,8 C 5,0 km/h (1 Bft)
13.06.2013 17:45 24,8 C 43 % 1020,0 hPa 0,0 l/m 3,2 km/h (1 Bft) NW 315 11,4 C 31,6 C 4,7 km/h (1 Bft)
13.06.2013 17:50 24,9 C 43 % 1020,0 hPa 0,0 l/m 3,4 km/h (1 Bft) NW 315 11,4 C 31,8 C 7,1 km/h (2 Bft)
13.06.2013 17:55 25,0 C 43 % 1020,0 hPa 0,0 l/m 3,2 km/h (1 Bft) NO 45 11,5 C 31,5 C 3,5 km/h (1 Bft)
13.06.2013 18:00 24,9 C 43 % 1020,0 hPa 0,0 l/m 3,9 km/h (1 Bft) N 360 11,4 C 31,3 C 2,3 km/h (1 Bft)
13.06.2013 18:05 24,9 C 43 % 1019,8 hPa 0,0 l/m 3,5 km/h (1 Bft) N 360 11,4 C 31,5 C 6,1 km/h (2 Bft)
13.06.2013 18:10 25,1 C 42 % 1019,8 hPa 0,0 l/m 3,5 km/h (1 Bft) NW 315 11,3 C 31,1 C 3,4 km/h (1 Bft)
13.06.2013 18:15 25,2 C 41 % 1019,8 hPa 0,0 l/m 3,9 km/h (1 Bft) N 360 11,0 C 31,1 C 6,1 km/h (2 Bft)
13.06.2013 18:20 25,3 C 42 % 1019,8 hPa 0,0 l/m 2,7 km/h (1 Bft) W 270 11,5 C 31,4 C 2,6 km/h (1 Bft)
13.06.2013 18:25 25,2 C 41 % 1019,5 hPa 0,0 l/m 3,9 km/h (1 Bft) N-NW 337 11,0 C 31,3 C 7,1 km/h (2 Bft)
13.06.2013 18:30 25,0 C 41 % 1019,5 hPa 0,0 l/m 4,2 km/h (1 Bft) N 360 10,8 C 31,0 C 3,5 km/h (1 Bft)
13.06.2013 18:35 25,2 C 42 % 1019,5 hPa 0,0 l/m 3,4 km/h (1 Bft) N-NW 337 11,4 C 31,0 C 5,0 km/h (1 Bft)
13.06.2013 18:40 25,1 C 42 % 1019,5 hPa 0,0 l/m 2,7 km/h (1 Bft) W-NW 292 11,3 C 31,1 C 3,4 km/h (1 Bft)
13.06.2013 18:45 25,1 C 41 % 1018,9 hPa 0,0 l/m 2,9 km/h (1 Bft) W-NW 292 10,9 C 31,3 C 4,8 km/h (1 Bft)
13.06.2013 18:50 24,9 C 43 % 1018,9 hPa 0,0 l/m 2,4 km/h (1 Bft) NW 315 11,4 C 31,6 C 4,3 km/h (1 Bft)
13.06.2013 18:55 24,7 C 42 % 1018,9 hPa 0,0 l/m 2,9 km/h (1 Bft) W-NW 292 10,9 C 31,4 C 1,6 km/h (1 Bft)
13.06.2013 19:00 24,6 C 43 % 1018,9 hPa 0,0 l/m 3,2 km/h (1 Bft) N 360 11,2 C 31,3 C 2,9 km/h (1 Bft)
13.06.2013 19:05 24,5 C 44 % 1018,6 hPa 0,0 l/m 2,9 km/h (1 Bft) N-NW 337 11,4 C 31,0 C 3,1 km/h (1 Bft)
13.06.2013 19:10 24,4 C 45 % 1018,6 hPa 0,0 l/m 2,9 km/h (1 Bft) W-NW 292 11,7 C 30,9 C 3,2 km/h (1 Bft)
13.06.2013 19:15 24,4 C 43 % 1018,6 hPa 0,0 l/m 2,9 km/h (1 Bft) O-NO 67 11,0 C 30,8 C 3,5 km/h (1 Bft)
13.06.2013 19:20 24,4 C 45 % 1018,6 hPa 0,0 l/m 3,1 km/h (1 Bft) N-NW 337 11,7 C 30,5 C 4,7 km/h (1 Bft)
13.06.2013 19:25 24,3 C 43 % 1018,4 hPa 0,0 l/m 2,6 km/h (1 Bft) N-NO 22 10,9 C 30,5 C 4,0 km/h (1 Bft)
13.06.2013 19:30 24,4 C 44 % 1018,4 hPa 0,0 l/m 2,3 km/h (1 Bft) N 360 11,3 C 30,3 C 3,4 km/h (1 Bft)
13.06.2013 19:35 24,2 C 44 % 1018,4 hPa 0,0 l/m 2,9 km/h (1 Bft) NW 315 11,2 C 30,1 C 4,5 km/h (1 Bft)
13.06.2013 19:40 24,1 C 45 % 1018,4 hPa 0,0 l/m 2,6 km/h (1 Bft) W-NW 292 11,4 C 29,9 C 0,0 km/h (0 Bft)
13.06.2013 19:45 23,9 C 46 % 1018,5 hPa 0,0 l/m 1,9 km/h (1 Bft) NO 45 11,6 C 29,8 C 1,8 km/h (1 Bft)
13.06.2013 19:50 23,7 C 46 % 1018,5 hPa 0,0 l/m 1,6 km/h (1 Bft) N-NO 22 11,4 C 29,7 C 0,0 km/h (0 Bft)
13.06.2013 19:55 23,6 C 47 % 1018,5 hPa 0,0 l/m 1,3 km/h (1 Bft) N 360 11,6 C 29,9 C 2,3 km/h (1 Bft)
13.06.2013 20:00 23,3 C 48 % 1018,5 hPa 0,0 l/m 0,8 km/h (0 Bft) N 360 11,7 C 29,7 C 2,3 km/h (1 Bft)
13.06.2013 20:05 23,2 C 47 % 1018,4 hPa 0,0 l/m 1,1 km/h (1 Bft) O-NO 67 11,3 C 29,5 C 0,0 km/h (0 Bft)
13.06.2013 20:10 22,9 C 48 % 1018,4 hPa 0,0 l/m 0,8 km/h (0 Bft) O 90 11,3 C 29,3 C 1,6 km/h (1 Bft)
13.06.2013 20:15 22,8 C 48 % 1018,4 hPa 0,0 l/m 1,1 km/h (1 Bft) O 90 11,2 C 29,0 C 2,7 km/h (1 Bft)
13.06.2013 20:20 22,5 C 48 % 1018,4 hPa 0,0 l/m 1,4 km/h (1 Bft) SO 135 10,9 C 28,5 C 1,8 km/h (1 Bft)
13.06.2013 20:25 22,1 C 49 % 1018,6 hPa 0,0 l/m 1,3 km/h (1 Bft) O-NO 67 10,9 C 28,1 C 0,0 km/h (0 Bft)
13.06.2013 20:30 22,0 C 49 % 1018,6 hPa 0,0 l/m 1,3 km/h (1 Bft) O 90 10,8 C 27,4 C 2,1 km/h (1 Bft)
13.06.2013 20:35 21,8 C 50 % 1018,6 hPa 0,0 l/m 1,8 km/h (1 Bft) O-NO 67 10,9 C 26,8 C 3,4 km/h (1 Bft)
13.06.2013 20:40 21,5 C 51 % 1018,6 hPa 0,0 l/m 2,7 km/h (1 Bft) NO 45 10,9 C 25,8 C 3,5 km/h (1 Bft)
13.06.2013 20:45 21,3 C 51 % 1018,6 hPa 0,0 l/m 3,1 km/h (1 Bft) O 90 10,7 C 25,3 C 3,2 km/h (1 Bft)
13.06.2013 20:50 21,0 C 53 % 1018,6 hPa 0,0 l/m 2,9 km/h (1 Bft) NO 45 11,0 C 24,5 C 2,4 km/h (1 Bft)
13.06.2013 20:55 20,5 C 55 % 1018,6 hPa 0,0 l/m 2,9 km/h (1 Bft) O 90 11,1 C 23,7 C 2,7 km/h (1 Bft)
13.06.2013 21:00 20,1 C 56 % 1018,6 hPa 0,0 l/m 2,6 km/h (1 Bft) O 90 11,0 C 22,1 C 3,5 km/h (1 Bft)
13.06.2013 21:05 20,0 C 56 % 1018,6 hPa 0,0 l/m 3,1 km/h (1 Bft) NO 45 11,0 C 21,1 C 4,7 km/h (1 Bft)
13.06.2013 21:10 19,3 C 58 % 1018,6 hPa 0,0 l/m 3,2 km/h (1 Bft) O-NO 67 10,8 C 20,2 C 3,2 km/h (1 Bft)
13.06.2013 21:15 18,7 C 59 % 1018,6 hPa 0,0 l/m 1,8 km/h (1 Bft) O-SO 112 10,5 C 19,6 C 0,0 km/h (0 Bft)
13.06.2013 21:20 18,1 C 61 % 1018,6 hPa 0,0 l/m 0,2 km/h (0 Bft) O 90 10,5 C 18,8 C 0,0 km/h (0 Bft)
13.06.2013 21:25 18,0 C 63 % 1018,4 hPa 0,0 l/m 0,5 km/h (0 Bft) O 90 10,8 C 18,5 C 2,1 km/h (1 Bft)
13.06.2013 21:30 17,7 C 66 % 1018,4 hPa 0,0 l/m 2,1 km/h (1 Bft) O-SO 112 11,3 C 18,0 C 2,7 km/h (1 Bft)
13.06.2013 21:35 17,4 C 68 % 1018,4 hPa 0,0 l/m 2,9 km/h (1 Bft) O 90 11,4 C 17,7 C 3,9 km/h (1 Bft)
13.06.2013 21:40 17,4 C 67 % 1018,4 hPa 0,0 l/m 3,4 km/h (1 Bft) O 90 11,2 C 17,3 C 4,0 km/h (1 Bft)
13.06.2013 21:45 17,1 C 69 % 1018,6 hPa 0,0 l/m 3,9 km/h (1 Bft) O-SO 112 11,4 C 17,3 C 4,2 km/h (1 Bft)
13.06.2013 21:50 16,6 C 70 % 1018,6 hPa 0,0 l/m 3,2 km/h (1 Bft) O-SO 112 11,1 C 17,1 C 2,3 km/h (1 Bft)
13.06.2013 21:55 16,6 C 71 % 1018,6 hPa 0,0 l/m 2,9 km/h (1 Bft) O-SO 112 11,3 C 16,9 C 2,6 km/h (1 Bft)
13.06.2013 22:00 16,5 C 71 % 1018,6 hPa 0,0 l/m 2,9 km/h (1 Bft) O 90 11,2 C 16,8 C 3,1 km/h (1 Bft)
13.06.2013 22:05 16,3 C 71 % 1018,8 hPa 0,0 l/m 2,7 km/h (1 Bft) W-NW 292 11,0 C 16,7 C 2,1 km/h (1 Bft)
13.06.2013 22:10 16,3 C 71 % 1018,8 hPa 0,0 l/m 2,3 km/h (1 Bft) O-SO 112 11,0 C 16,7 C 2,6 km/h (1 Bft)
13.06.2013 22:15 16,2 C 71 % 1018,8 hPa 0,0 l/m 2,3 km/h (1 Bft) O-SO 112 10,9 C 16,6 C 1,8 km/h (1 Bft)
13.06.2013 22:20 16,0 C 71 % 1018,8 hPa 0,0 l/m 1,6 km/h (1 Bft) O 90 10,7 C 16,5 C 0,0 km/h (0 Bft)
13.06.2013 22:25 15,9 C 72 % 1018,9 hPa 0,0 l/m 0,8 km/h (0 Bft) O-SO 112 10,9 C 16,3 C 0,0 km/h (0 Bft)
13.06.2013 22:30 15,9 C 72 % 1018,9 hPa 0,0 l/m 0,2 km/h (0 Bft) O-SO 112 10,9 C 16,2 C 0,0 km/h (0 Bft)
13.06.2013 22:35 15,8 C 71 % 1018,9 hPa 0,0 l/m 0,2 km/h (0 Bft) O 90 10,6 C 16,1 C 0,0 km/h (0 Bft)
13.06.2013 22:40 15,8 C 71 % 1018,9 hPa 0,0 l/m 0,2 km/h (0 Bft) SO 135 10,6 C 15,9 C 2,3 km/h (1 Bft)
13.06.2013 22:45 15,8 C 71 % 1018,8 hPa 0,0 l/m 0,2 km/h (0 Bft) O 90 10,6 C 15,9 C 0,0 km/h (0 Bft)
13.06.2013 22:50 15,7 C 71 % 1018,8 hPa 0,0 l/m 0,2 km/h (0 Bft) O-SO 112 10,5 C 15,8 C 0,0 km/h (0 Bft)
13.06.2013 22:55 15,6 C 71 % 1018,8 hPa 0,0 l/m 0,0 km/h (0 Bft) S 180 10,4 C 15,7 C 0,0 km/h (0 Bft)
13.06.2013 23:00 15,3 C 72 % 1018,8 hPa 0,0 l/m 0,0 km/h (0 Bft) W-SW 247 10,3 C 15,5 C 0,0 km/h (0 Bft)
13.06.2013 23:05 15,2 C 72 % 1018,8 hPa 0,0 l/m 0,0 km/h (0 Bft) O-SO 112 10,2 C 15,4 C 0,0 km/h (0 Bft)
13.06.2013 23:10 15,2 C 73 % 1018,8 hPa 0,0 l/m 0,0 km/h (0 Bft) S 180 10,4 C 15,2 C 0,0 km/h (0 Bft)
13.06.2013 23:15 15,4 C 73 % 1018,8 hPa 0,0 l/m 0,2 km/h (0 Bft) O-NO 67 10,6 C 15,2 C 1,8 km/h (1 Bft)
13.06.2013 23:20 15,6 C 73 % 1018,8 hPa 0,0 l/m 0,6 km/h (0 Bft) O-NO 67 10,8 C 15,3 C 0,0 km/h (0 Bft)
13.06.2013 23:25 15,7 C 74 % 1018,8 hPa 0,0 l/m 0,6 km/h (0 Bft) NO 45 11,1 C 15,5 C 1,9 km/h (1 Bft)
13.06.2013 23:30 15,3 C 73 % 1018,8 hPa 0,0 l/m 0,3 km/h (0 Bft) O-SO 112 10,5 C 15,5 C 0,0 km/h (0 Bft)
13.06.2013 23:35 15,0 C 73 % 1018,8 hPa 0,0 l/m 0,2 km/h (0 Bft) W-SW 247 10,2 C 15,3 C 1,6 km/h (1 Bft)
13.06.2013 23:40 14,8 C 75 % 1018,8 hPa 0,0 l/m 0,2 km/h (0 Bft) NO 45 10,4 C 15,0 C 2,1 km/h (1 Bft)
13.06.2013 23:45 14,7 C 75 % 1019,0 hPa 0,0 l/m 0,3 km/h (0 Bft) W-SW 247 10,3 C 14,9 C 0,0 km/h (0 Bft)
13.06.2013 23:50 14,6 C 76 % 1019,0 hPa 0,0 l/m 0,5 km/h (0 Bft) NO 45 10,4 C 14,9 C 0,0 km/h (0 Bft)
13.06.2013 23:55 14,6 C 76 % 1019,0 hPa 0,0 l/m 0,2 km/h (0 Bft) W 270 10,4 C 14,8 C 0,0 km/h (0 Bft)
_ Min-Zeit 03:20 15:25 21:40 - 23:10 - - 02:30 03:20 23:55
Minimum _ 8,1 C 33 % 1018,4 hPa - 0,0 km/h (0 Bft) - - 5,0 C 7,7 C 0,0 km/h (0 Bft)
_ Max-Zeit 16:10 05:30 10:40 23:55 14:50 - - 08:10 17:15 14:50
Maximum _ 28,0 C 82 % 1023,8 hPa 0,0 l/m 5,5 km/h
W-NW (1 Bft)
- - 12,7 C 32,0 C 13,4 km/h
W-NW (3 Bft)
Durchschnitt _ 19,6 C 55 % 1021,7 hPa #0,0 l/m 1,7 km/h (1 Bft) W-NW - 9,3 C 21,5 C 2,4 km/h (1 Bft)